Theta_e
313 314 315 319 323 325 327 326 330 334 340 344 345 343 341 338 341 344 344 344 342 340 336 334 336 331 328 326 325 327 329 329
313 314 318 321 324 326 326 327 331 328 330 335 340 340 337 334 337 344 342 340 341 336 335 332 330 327 326 326 324 323 326 328
311 315 319 322 324 326 330 329 330 330 330 335 339 339 330 330 334 338 339 339 336 336 334 329 330 327 324 324 323 321 322 328
312 315 318 321 323 328 330 329 331 333 334 336 334 332 330 328 330 331 336 335 336 336 333 329 327 327 323 323 323 321 319 324
313 313 316 319 323 329 332 332 332 333 336 335 331 327 326 327 329 330 334 334 334 334 334 330 326 326 324 323 324 323 321 320
312 313 315 318 323 325 329 332 332 333 333 334 330 329 332 333 334 331 331 333 334 335 334 331 326 325 324 324 323 322 323 323
312 314 316 318 324 326 326 328 328 328 330 331 330 330 332 332 331 330 331 333 333 333 332 329 328 324 323 323 324 322 322 324
311 312 315 317 320 323 326 325 325 327 328 330 330 332 331 333 329 329 330 327 326 327 327 324 324 323 322 322 322 321 321 322
311 312 314 316 318 320 323 325 324 324 327 327 328 331 331 332 331 331 331 328 326 326 323 322 321 320 321 322 322 322 322 322
309 311 313 315 315 317 320 324 325 324 324 327 325 327 331 332 331 330 332 331 329 325 323 320 319 318 319 320 320 321 322 323
307 310 312 313 315 317 319 321 324 325 325 325 324 325 329 330 331 331 332 332 329 325 324 320 317 317 317 318 319 320 321 322
305 308 311 313 315 317 317 318 319 323 324 324 324 324 327 329 329 330 331 331 330 328 323 321 317 315 316 317 317 319 319 320
303 308 310 312 314 315 315 315 316 317 322 322 323 323 326 325 327 329 331 329 330 327 324 322 319 317 316 316 315 317 317 319
301 306 308 311 313 314 313 314 315 316 318 321 322 322 324 325 325 328 326 326 327 327 326 325 322 319 317 317 317 317 316 318
301 303 308 311 314 313 312 312 314 313 311 319 320 322 323 324 326 325 324 326 326 326 326 327 326 322 320 319 318 318 317 317
303 306 310 312 312 312 311 309 311 311 308 310 319 322 323 322 323 323 324 324 324 324 323 322 322 322 322 320 319 318 317 317
305 308 309 309 309 309 309 308 305 308 306 306 316 321 321 322 322 322 322 323 322 321 320 316 310 305 295 299 309 311 306 296
306 306 306 307 307 306 305 305 305 304 305 307 309 319 320 323 322 321 321 320 316 308 304 303 299 296 292 293 293 293 291 289
304 305 305 305 305 302 301 302 303 302 301 303 307 318 320 322 320 318 315 311 303 298 295 295 293 291 290 290 289 288 286 285
Wind_Speed
12 7 3 6 7 7 11 11 11 11 10 11 11 13 12 9 11 12 15 12 13 12 9 11 10 10 10 9 10 10 10 11
12 6 3 6 8 10 13 12 12 11 11 12 12 13 9 9 9 17 14 11 15 12 9 10 10 10 13 15 11 10 10 11
7 2 4 5 7 9 10 12 12 12 11 11 10 11 6 6 7 11 12 13 13 14 12 10 13 10 14 15 15 10 10 10
4 4 3 4 5 8 10 10 11 12 14 8 6 7 5 8 10 11 13 13 12 16 14 10 12 12 11 16 16 18 13 11
3 3 3 5 7 8 10 8 8 8 12 13 13 10 8 6 8 9 10 15 15 16 14 12 11 11 14 15 16 16 14 14
1 3 6 6 7 8 8 9 5 4 11 7 10 10 11 10 10 14 14 11 15 14 12 11 10 10 14 19 17 19 14 13
2 3 5 6 6 7 7 7 5 5 9 10 12 14 13 9 9 8 10 7 8 12 11 11 12 12 14 16 18 20 15 15
1 4 7 8 8 11 10 6 5 6 8 11 10 13 11 9 11 11 10 8 8 10 10 9 9 12 11 14 16 17 18 14
1 4 6 7 8 9 14 11 2 5 9 10 6 9 6 9 12 7 7 10 9 11 10 10 10 9 9 15 14 14 16 11
4 4 5 7 9 9 9 13 8 2 8 9 8 7 10 9 10 8 8 10 10 12 12 11 11 10 10 10 10 12 11 13
5 6 5 7 10 9 9 10 11 7 7 9 7 8 10 7 10 11 11 10 12 12 13 13 12 11 11 10 9 12 11 12
6 6 6 7 9 11 9 10 11 9 7 8 9 8 13 8 8 9 9 10 12 13 12 12 13 13 13 12 9 14 13 13
11 7 8 6 8 10 11 10 12 10 10 7 10 10 8 8 8 10 9 10 11 10 12 12 14 15 15 16 14 12 14 14
12 10 7 7 5 10 11 10 11 10 12 8 9 10 10 10 11 12 10 9 10 10 13 12 11 12 15 16 16 16 15 14
12 11 9 7 7 8 10 13 12 12 11 9 9 9 9 9 9 9 8 8 9 9 9 9 10 12 13 13 13 15 16 16
12 8 7 11 10 10 10 11 14 13 10 10 10 9 7 8 8 9 9 8 9 7 7 6 7 8 7 12 15 17 18 17
9 9 11 11 11 11 12 12 13 15 11 7 10 8 8 9 10 11 11 9 9 9 6 6 5 3 4 6 7 8 8 11
9 10 9 10 11 12 13 14 13 14 11 9 11 9 10 14 12 11 10 9 9 9 7 8 9 7 12 18 20 12 12 11
10 9 10 11 11 12 13 14 14 13 12 10 10 11 15 14 12 11 9 9 9 8 8 9 11 9 17 23 25 16 15 13
Wind_Direction
228 233 272 323 289 281 272 264 254 232 213 214 215 195 197 207 216 211 194 206 197 202 192 196 187 171 167 161 183 218 195 171
215 215 212 245 263 264 261 252 240 233 216 213 211 200 184 186 202 223 175 190 202 193 191 178 180 180 176 175 183 200 216 174
196 241 278 278 284 273 269 251 243 231 219 213 210 204 183 175 199 219 209 202 187 200 198 183 184 174 171 173 181 194 217 189
162 222 251 284 338 325 295 261 238 222 226 187 135 167 157 190 205 210 212 207 204 192 196 190 188 187 180 182 180 186 201 187
203 268 315 327 13 342 326 292 260 209 230 178 187 187 190 193 191 206 205 205 203 209 200 194 189 191 187 186 179 185 207 187
311 330 354 344 11 342 338 314 275 225 237 225 182 192 205 191 199 190 204 209 211 205 194 192 187 200 201 192 182 188 197 190
295 28 323 356 13 341 331 324 310 251 228 220 196 211 224 189 186 185 196 199 203 208 202 197 202 203 196 191 179 185 185 202
308 10 350 355 358 347 330 305 266 238 223 226 231 220 232 193 185 196 184 177 199 202 196 187 194 194 184 181 180 184 194 190
327 356 346 344 354 3 338 326 256 247 235 229 247 239 220 212 195 202 187 186 187 176 176 177 174 171 175 188 182 182 189 187
358 337 352 337 343 351 352 326 328 217 229 234 231 245 244 210 210 192 227 168 178 178 177 176 170 167 171 183 181 173 181 179
322 310 325 324 343 343 350 339 313 307 233 227 216 221 240 225 209 200 200 189 170 179 177 175 171 172 172 176 179 182 180 187
311 308 309 318 343 345 344 341 334 293 286 241 210 217 228 227 204 194 196 183 193 175 176 175 173 173 180 180 184 184 191 192
304 284 287 327 343 342 342 355 330 324 278 254 225 223 222 203 200 216 194 199 184 172 182 186 177 175 177 186 182 190 186 192
298 278 275 285 323 351 346 351 346 331 308 251 235 225 212 210 194 196 189 193 207 194 187 190 176 179 181 189 189 185 193 196
298 284 282 294 8 349 344 334 346 342 338 266 237 223 211 207 188 177 173 192 206 207 210 209 188 175 185 189 195 191 192 196
296 293 330 355 346 324 331 328 328 335 315 331 236 224 218 191 181 172 172 184 192 181 185 183 183 188 193 196 203 201 197 192
299 353 343 331 324 326 328 328 325 318 313 318 277 222 204 195 174 173 176 175 157 166 154 90 83 31 301 179 190 187 146 127
331 340 319 329 330 334 337 324 321 308 299 309 306 215 212 202 171 168 171 151 120 100 93 100 88 77 94 102 101 94 96 100
346 337 336 334 342 341 332 322 319 315 307 322 302 235 229 183 170 162 127 125 117 107 101 101 100 88 103 100 97 95 88 80